Location: Franzen
(48.6167°N, 15.3833°E)
Time: 09:44:59
(UTC+00:00)

Gbstr 26 Del rocket - Pass Details

Date: 22 April 2021
Orbit: 493 x 1263 km, 51.8° (Epoch: 16 May)

Event Time Altitude Azimuth Distance (km) Brightness Sun altitude
Exits shadow 23:53:47 78° 154° (SSE) 937 3.7 -27.6°
Maximum altitude 23:53:47 78° 154° (SSE) 937 3.7 -27.6°
Drops below altitude 10° 23:59:19 10° 69° (ENE) 2,342 6.4 -27.3°
Sets 00:01:31 0° 68° (ENE) 3,162 7.2 -27.2°
